Time,TemperatureF,DewpointF,PressureIn,WindDirection,WindDirectionDegrees,WindSpeedMPH,WindSpeedGustMPH,Humidity,HourlyPrecipIn,Conditions,Clouds,dailyrainin,SoftwareType,DateUTC
2013-01-15 00:00:00,41.0,38.0,30.24,NNW,327,10.0,19.0,89,-99.99,,,-99.99,,2013-01-15 05:00:00,
2013-01-15 00:22:00,41.0,38.0,30.24,NNW,327,10.0,19.0,89,-99.99,,,-99.99,,2013-01-15 05:22:00,
2013-01-15 00:33:00,41.0,38.0,30.24,NNW,327,10.0,19.0,89,-99.99,,,-99.99,,2013-01-15 05:33:00,
2013-01-15 00:42:00,41.0,38.0,30.24,NNW,327,10.0,19.0,89,-99.99,,,-99.99,,2013-01-15 05:42:00,
2013-01-15 00:53:00,41.0,38.0,30.24,NNW,327,10.0,19.0,89,-99.99,,,-99.99,,2013-01-15 05:53:00,
2013-01-15 01:00:00,40.0,38.0,30.24,NNW,340,6.0,14.0,92,-99.99,,,-99.99,,2013-01-15 06:00:00,
2013-01-15 01:22:00,40.0,38.0,30.24,NNW,340,6.0,14.0,92,-99.99,,,-99.99,,2013-01-15 06:22:00,
2013-01-15 01:33:00,40.0,38.0,30.24,NNW,340,6.0,14.0,92,-99.99,,,-99.99,,2013-01-15 06:33:00,
2013-01-15 01:43:00,40.0,38.0,30.24,NNW,340,6.0,14.0,92,-99.99,,,-99.99,,2013-01-15 06:43:00,
2013-01-15 01:53:00,40.0,38.0,30.24,NNW,340,6.0,14.0,92,-99.99,,,-99.99,,2013-01-15 06:53:00,
2013-01-15 02:00:00,40.0,38.0,30.24,NNE,16,5.0,10.0,91,-99.99,,,-99.99,,2013-01-15 07:00:00,
2013-01-15 02:22:00,40.0,38.0,30.24,NNE,16,5.0,10.0,91,-99.99,,,-99.99,,2013-01-15 07:22:00,
2013-01-15 02:33:00,40.0,38.0,30.24,NNE,16,5.0,10.0,91,-99.99,,,-99.99,,2013-01-15 07:33:00,
2013-01-15 02:43:00,40.0,38.0,30.24,NNE,16,5.0,10.0,91,-99.99,,,-99.99,,2013-01-15 07:43:00,
2013-01-15 02:53:00,40.0,38.0,30.24,NNE,16,5.0,10.0,91,-99.99,,,-99.99,,2013-01-15 07:53:00,
2013-01-15 03:00:00,40.0,37.0,30.24,NNE,28,15.0,17.0,90,-99.99,,,-99.99,,2013-01-15 08:00:00,
2013-01-15 03:22:00,40.0,37.0,30.24,NNE,28,15.0,17.0,90,-99.99,,,-99.99,,2013-01-15 08:22:00,
2013-01-15 03:33:00,40.0,37.0,30.24,NNE,28,15.0,17.0,90,-99.99,,,-99.99,,2013-01-15 08:33:00,
2013-01-15 03:43:00,40.0,37.0,30.24,NNE,28,15.0,17.0,90,-99.99,,,-99.99,,2013-01-15 08:43:00,
2013-01-15 03:53:00,40.0,37.0,30.24,NNE,28,15.0,17.0,90,-99.99,,,-99.99,,2013-01-15 08:53:00,
2013-01-15 04:00:00,39.0,36.0,30.21,NNE,28,12.0,20.0,89,-99.99,,,-99.99,,2013-01-15 09:00:00,
2013-01-15 04:33:00,39.0,36.0,30.21,NNE,28,12.0,20.0,89,-99.99,,,-99.99,,2013-01-15 09:33:00,
2013-01-15 04:43:00,39.0,36.0,30.21,NNE,28,12.0,20.0,89,-99.99,,,-99.99,,2013-01-15 09:43:00,
2013-01-15 04:52:00,39.0,36.0,30.21,NNE,28,12.0,20.0,89,-99.99,,,-99.99,,2013-01-15 09:52:00,
2013-01-15 05:00:00,38.0,34.0,30.24,North,5,8.0,17.0,86,-99.99,,,-99.99,,2013-01-15 10:00:00,
2013-01-15 05:22:00,38.0,34.0,30.24,North,5,8.0,17.0,86,-99.99,,,-99.99,,2013-01-15 10:22:00,
2013-01-15 05:33:00,38.0,34.0,30.24,North,5,8.0,17.0,86,-99.99,,,-99.99,,2013-01-15 10:33:00,
2013-01-15 05:42:00,38.0,34.0,30.24,North,5,8.0,17.0,86,-99.99,,,-99.99,,2013-01-15 10:42:00,
2013-01-15 05:52:00,38.0,34.0,30.24,North,5,8.0,17.0,86,-99.99,,,-99.99,,2013-01-15 10:52:00,
2013-01-15 06:00:00,39.0,34.0,30.24,NE,38,8.0,16.0,83,-99.99,,,-99.99,,2013-01-15 11:00:00,
2013-01-15 06:23:00,39.0,34.0,30.24,NE,38,8.0,16.0,83,-99.99,,,-99.99,,2013-01-15 11:23:00,
2013-01-15 06:33:00,39.0,34.0,30.24,NE,38,8.0,16.0,83,-99.99,,,-99.99,,2013-01-15 11:33:00,
2013-01-15 06:43:00,39.0,34.0,30.24,NE,38,8.0,16.0,83,-99.99,,,-99.99,,2013-01-15 11:43:00,
2013-01-15 06:53:00,39.0,34.0,30.24,NE,38,8.0,16.0,83,-99.99,,,-99.99,,2013-01-15 11:53:00,
2013-01-15 07:00:00,38.0,33.0,30.27,NNW,342,11.0,13.0,84,-99.99,,,-99.99,,2013-01-15 12:00:00,
2013-01-15 07:23:00,38.0,33.0,30.27,NNW,342,11.0,13.0,84,-99.99,,,-99.99,,2013-01-15 12:23:00,
2013-01-15 07:33:00,38.0,33.0,30.27,NNW,342,11.0,13.0,84,-99.99,,,-99.99,,2013-01-15 12:33:00,
2013-01-15 07:43:00,38.0,33.0,30.27,NNW,342,11.0,13.0,84,-99.99,,,-99.99,,2013-01-15 12:43:00,
2013-01-15 07:53:00,38.0,33.0,30.27,NNW,342,11.0,13.0,84,-99.99,,,-99.99,,2013-01-15 12:53:00,
2013-01-15 08:00:00,38.0,32.0,30.30,NNW,340,5.0,12.0,80,-99.99,,,-99.99,,2013-01-15 13:00:00,
2013-01-15 08:23:00,38.0,32.0,30.30,NNW,340,5.0,12.0,80,-99.99,,,-99.99,,2013-01-15 13:23:00,
2013-01-15 08:33:00,38.0,32.0,30.30,NNW,340,5.0,12.0,80,-99.99,,,-99.99,,2013-01-15 13:33:00,
2013-01-15 08:43:00,38.0,32.0,30.30,NNW,340,5.0,12.0,80,-99.99,,,-99.99,,2013-01-15 13:43:00,
2013-01-15 08:53:00,38.0,32.0,30.30,NNW,340,5.0,12.0,80,-99.99,,,-99.99,,2013-01-15 13:53:00,
2013-01-15 09:00:00,39.0,31.0,30.30,NNE,18,5.0,12.0,74,-99.99,,,-99.99,,2013-01-15 14:00:00,
2013-01-15 09:23:00,39.0,31.0,30.30,NNE,18,5.0,12.0,74,-99.99,,,-99.99,,2013-01-15 14:23:00,
2013-01-15 09:33:00,39.0,31.0,30.30,NNE,18,5.0,12.0,74,-99.99,,,-99.99,,2013-01-15 14:33:00,
2013-01-15 09:43:00,39.0,31.0,30.30,NNE,18,5.0,12.0,74,-99.99,,,-99.99,,2013-01-15 14:43:00,
2013-01-15 09:54:00,39.0,31.0,30.30,NNE,18,5.0,12.0,74,-99.99,,,-99.99,,2013-01-15 14:54:00,
2013-01-15 10:00:00,39.0,30.0,30.30,North,11,7.0,16.0,69,-99.99,,,-99.99,,2013-01-15 15:00:00,
2013-01-15 10:23:00,39.0,30.0,30.30,North,11,7.0,16.0,69,-99.99,,,-99.99,,2013-01-15 15:23:00,
2013-01-15 10:33:00,39.0,30.0,30.30,North,11,7.0,16.0,69,-99.99,,,-99.99,,2013-01-15 15:33:00,
2013-01-15 10:43:00,39.0,30.0,30.30,North,11,7.0,16.0,69,-99.99,,,-99.99,,2013-01-15 15:43:00,
2013-01-15 10:53:00,39.0,30.0,30.30,North,11,7.0,16.0,69,-99.99,,,-99.99,,2013-01-15 15:53:00,
2013-01-15 11:00:00,39.0,31.0,30.30,North,8,8.0,13.0,73,-99.99,,,-99.99,,2013-01-15 16:00:00,
2013-01-15 11:23:00,39.0,31.0,30.30,North,8,8.0,13.0,73,-99.99,,,-99.99,,2013-01-15 16:23:00,
2013-01-15 11:33:00,39.0,31.0,30.30,North,8,8.0,13.0,73,-99.99,,,-99.99,,2013-01-15 16:33:00,
2013-01-15 11:43:00,39.0,31.0,30.30,North,8,8.0,13.0,73,-99.99,,,-99.99,,2013-01-15 16:43:00,
2013-01-15 11:53:00,39.0,31.0,30.30,North,8,8.0,13.0,73,-99.99,,,-99.99,,2013-01-15 16:53:00,
2013-01-15 12:00:00,39.0,30.0,30.30,NNW,340,6.0,14.0,70,-99.99,,,-99.99,,2013-01-15 17:00:00,
2013-01-15 12:23:00,39.0,30.0,30.30,NNW,340,6.0,14.0,70,-99.99,,,-99.99,,2013-01-15 17:23:00,
2013-01-15 12:33:00,39.0,30.0,30.30,NNW,340,6.0,14.0,70,-99.99,,,-99.99,,2013-01-15 17:33:00,
2013-01-15 12:43:00,39.0,30.0,30.30,NNW,340,6.0,14.0,70,-99.99,,,-99.99,,2013-01-15 17:43:00,
2013-01-15 12:53:00,39.0,30.0,30.30,NNW,340,6.0,14.0,70,-99.99,,,-99.99,,2013-01-15 17:53:00,
2013-01-15 13:00:00,39.0,29.0,30.27,North,10,5.0,13.0,65,-99.99,,,-99.99,,2013-01-15 18:00:00,
2013-01-15 13:34:00,39.0,29.0,30.27,North,10,5.0,13.0,65,-99.99,,,-99.99,,2013-01-15 18:34:00,
2013-01-15 13:43:00,39.0,29.0,30.27,North,10,5.0,13.0,65,-99.99,,,-99.99,,2013-01-15 18:43:00,
2013-01-15 13:54:00,39.0,29.0,30.27,North,10,5.0,13.0,65,-99.99,,,-99.99,,2013-01-15 18:54:00,
2013-01-15 14:00:00,39.0,29.0,30.24,NNE,26,5.0,12.0,65,-99.99,,,-99.99,,2013-01-15 19:00:00,
2013-01-15 14:23:00,39.0,29.0,30.24,NNE,26,5.0,12.0,65,-99.99,,,-99.99,,2013-01-15 19:23:00,
2013-01-15 14:33:00,39.0,29.0,30.24,NNE,26,5.0,12.0,65,-99.99,,,-99.99,,2013-01-15 19:33:00,
2013-01-15 14:43:00,39.0,29.0,30.24,NNE,26,5.0,12.0,65,-99.99,,,-99.99,,2013-01-15 19:43:00,
2013-01-15 14:53:00,39.0,29.0,30.24,NNE,26,5.0,12.0,65,-99.99,,,-99.99,,2013-01-15 19:53:00,
2013-01-15 15:00:00,39.0,29.0,30.24,NNE,24,4.0,11.0,65,-99.99,,,-99.99,,2013-01-15 20:00:00,
2013-01-15 15:23:00,39.0,29.0,30.24,NNE,24,4.0,11.0,65,-99.99,,,-99.99,,2013-01-15 20:23:00,
2013-01-15 15:33:00,39.0,29.0,30.24,NNE,24,4.0,11.0,65,-99.99,,,-99.99,,2013-01-15 20:33:00,
2013-01-15 15:44:00,39.0,29.0,30.24,NNE,24,4.0,11.0,65,-99.99,,,-99.99,,2013-01-15 20:44:00,
2013-01-15 15:53:00,39.0,29.0,30.24,NNE,24,4.0,11.0,65,-99.99,,,-99.99,,2013-01-15 20:53:00,
2013-01-15 16:00:00,39.0,30.0,30.24,NNE,27,7.0,8.0,68,-99.99,,,-99.99,,2013-01-15 21:00:00,
2013-01-15 16:23:00,39.0,30.0,30.24,NNE,27,7.0,8.0,68,-99.99,,,-99.99,,2013-01-15 21:23:00,
2013-01-15 16:34:00,39.0,30.0,30.24,NNE,27,7.0,8.0,68,-99.99,,,-99.99,,2013-01-15 21:34:00,
2013-01-15 16:43:00,39.0,30.0,30.24,NNE,27,7.0,8.0,68,-99.99,,,-99.99,,2013-01-15 21:43:00,
2013-01-15 16:53:00,39.0,30.0,30.24,NNE,27,7.0,8.0,68,-99.99,,,-99.99,,2013-01-15 21:53:00,
2013-01-15 17:00:00,39.0,29.0,30.24,North,4,6.0,13.0,67,-99.99,,,-99.99,,2013-01-15 22:00:00,
2013-01-15 17:23:00,39.0,29.0,30.24,North,4,6.0,13.0,67,-99.99,,,-99.99,,2013-01-15 22:23:00,
2013-01-15 17:33:00,39.0,29.0,30.24,North,4,6.0,13.0,67,-99.99,,,-99.99,,2013-01-15 22:33:00,
2013-01-15 17:43:00,39.0,29.0,30.24,North,4,6.0,13.0,67,-99.99,,,-99.99,,2013-01-15 22:43:00,
2013-01-15 17:53:00,39.0,29.0,30.24,North,4,6.0,13.0,67,-99.99,,,-99.99,,2013-01-15 22:53:00,
2013-01-15 18:00:00,39.0,29.0,30.24,North,351,2.0,11.0,65,-99.99,,,-99.99,,2013-01-15 23:00:00,
2013-01-15 18:23:00,39.0,29.0,30.24,North,351,2.0,11.0,65,-99.99,,,-99.99,,2013-01-15 23:23:00,
2013-01-15 18:33:00,39.0,29.0,30.24,North,351,2.0,11.0,65,-99.99,,,-99.99,,2013-01-15 23:33:00,
2013-01-15 18:43:00,39.0,29.0,30.24,North,351,2.0,11.0,65,-99.99,,,-99.99,,2013-01-15 23:43:00,
2013-01-15 18:53:00,39.0,29.0,30.24,North,351,2.0,11.0,65,-99.99,,,-99.99,,2013-01-15 23:53:00,
2013-01-15 19:00:00,40.0,30.0,30.24,NNE,31,10.0,13.0,67,-99.99,,,-99.99,,2013-01-16 00:00:00,
2013-01-15 19:23:00,40.0,30.0,30.24,NNE,31,10.0,13.0,67,-99.99,,,-99.99,,2013-01-16 00:23:00,
2013-01-15 19:33:00,40.0,30.0,30.24,NNE,31,10.0,13.0,67,-99.99,,,-99.99,,2013-01-16 00:33:00,
2013-01-15 19:43:00,40.0,30.0,30.24,NNE,31,10.0,13.0,67,-99.99,,,-99.99,,2013-01-16 00:43:00,
2013-01-15 19:53:00,40.0,30.0,30.24,NNE,31,10.0,13.0,67,-99.99,,,-99.99,,2013-01-16 00:53:00,
2013-01-15 20:00:00,40.0,28.0,30.24,NNE,20,3.0,14.0,64,-99.99,,,-99.99,,2013-01-16 01:00:00,
2013-01-15 20:23:00,40.0,28.0,30.24,NNE,20,3.0,14.0,64,-99.99,,,-99.99,,2013-01-16 01:23:00,
2013-01-15 20:33:00,40.0,28.0,30.24,NNE,20,3.0,14.0,64,-99.99,,,-99.99,,2013-01-16 01:33:00,
2013-01-15 20:43:00,40.0,28.0,30.24,NNE,20,3.0,14.0,64,-99.99,,,-99.99,,2013-01-16 01:43:00,
2013-01-15 20:53:00,40.0,28.0,30.24,NNE,20,3.0,14.0,64,-99.99,,,-99.99,,2013-01-16 01:53:00,
2013-01-15 21:00:00,40.0,29.0,30.24,ENE,57,10.0,14.0,65,-99.99,,,-99.99,,2013-01-16 02:00:00,
2013-01-15 21:23:00,40.0,29.0,30.24,ENE,57,10.0,14.0,65,-99.99,,,-99.99,,2013-01-16 02:23:00,
2013-01-15 21:33:00,40.0,29.0,30.24,ENE,57,10.0,14.0,65,-99.99,,,-99.99,,2013-01-16 02:33:00,
2013-01-15 21:43:00,40.0,29.0,30.24,ENE,57,10.0,14.0,65,-99.99,,,-99.99,,2013-01-16 02:43:00,
2013-01-15 21:53:00,40.0,29.0,30.24,ENE,57,10.0,14.0,65,-99.99,,,-99.99,,2013-01-16 02:53:00,
2013-01-15 22:00:00,40.0,29.0,30.21,NE,46,10.0,15.0,66,-99.99,,,-99.99,,2013-01-16 03:00:00,
2013-01-15 22:23:00,40.0,29.0,30.21,NE,46,10.0,15.0,66,-99.99,,,-99.99,,2013-01-16 03:23:00,
2013-01-15 22:33:00,40.0,29.0,30.21,NE,46,10.0,15.0,66,-99.99,,,-99.99,,2013-01-16 03:33:00,
2013-01-15 22:43:00,40.0,29.0,30.21,NE,46,10.0,15.0,66,-99.99,,,-99.99,,2013-01-16 03:43:00,
2013-01-15 22:53:00,40.0,29.0,30.21,NE,46,10.0,15.0,66,-99.99,,,-99.99,,2013-01-16 03:53:00,
2013-01-15 23:00:00,38.0,32.0,30.21,ENE,58,9.0,15.0,80,-99.99,,,-99.99,,2013-01-16 04:00:00,
2013-01-15 23:22:00,38.0,32.0,30.21,ENE,58,9.0,15.0,80,-99.99,,,-99.99,,2013-01-16 04:22:00,
2013-01-15 23:33:00,38.0,32.0,30.21,ENE,58,9.0,15.0,80,-99.99,,,-99.99,,2013-01-16 04:33:00,
2013-01-15 23:42:00,38.0,32.0,30.21,ENE,58,9.0,15.0,80,-99.99,,,-99.99,,2013-01-16 04:42:00,
2013-01-15 23:53:00,38.0,32.0,30.21,ENE,58,9.0,15.0,80,-99.99,,,-99.99,,2013-01-16 04:53:00,